Location: Unspecified
(0.0000°N, 0.0000°E)
Time: 03:27:39
(UTC+00:00)

deb Delta 126 - Visible Passes

Search period start: 18 February 2026 00:00
Search period end: 28 February 2026 00:00
Orbit: 1137 x 1330 km, 101.6° (Epoch: 17 February)

Date Brightness Start Highest point End Pass type
(mag) Time Alt. Az. Time Alt. Az. Time Alt. Az.
18 Feb ? 05:08:57 10° SSE 05:16:34 57° ENE 05:23:58 10° N visible
18 Feb ? 18:56:24 10° NW 19:00:22 16° WNW 19:04:24 10° WSW visible
19 Feb ? 05:01:53 10° SSE 05:09:20 49° ENE 05:16:33 10° N visible
19 Feb ? 18:48:26 10° NNW 18:53:06 20° WNW 18:57:52 10° WSW visible
20 Feb ? 04:54:51 10° SE 05:02:05 42° ENE 05:09:04 10° N visible
20 Feb ? 18:40:37 10° NNW 18:45:49 24° WNW 18:51:09 10° SW visible
21 Feb ? 04:47:52 10° SE 04:54:48 36° ENE 05:01:32 10° N visible
21 Feb ? 18:32:54 10° NNW 18:38:32 28° WNW 18:44:19 10° SW visible
22 Feb ? 04:40:57 10° SE 04:47:33 31° ENE 04:53:57 10° NNE visible
22 Feb ? 18:25:15 10° NNW 18:31:15 33° WNW 18:37:24 10° SW visible
23 Feb ? 04:34:06 10° SE 04:40:17 27° ENE 04:46:17 10° NNE visible
24 Feb ? 04:27:21 10° ESE 04:33:01 23° ENE 04:38:32 10° NNE visible
25 Feb ? 04:20:43 10° ESE 04:25:45 19° ENE 04:30:40 10° NNE visible
26 Feb ? 04:14:15 10° ESE 04:18:29 16° ENE 04:22:37 10° NE visible
27 Feb ? 04:08:06 10° E 04:11:13 13° ENE 04:14:16 10° NE visible
